Weather History for Burlington, VT

Change the Weather History Date:

Tuesday, April 9, 2002

  Actual Average Record
Temperature  
Mean Temperature 54 °F 42 °F  
Max Temperature 63 °F 51 °F 76 °F (1945)
Min Temperature 46 °F 32 °F 14 °F (1997)
Degree Days  
Heating Degree Days 11 23  
Month to date heating degree days 227  
Since 1 July heating degree days 6691  
Cooling Degree Days 0 0  
Month to date cooling degree days 0  
Year to date cooling degree days 0  
Growing Degree Days 4 (Base 50)    
Moisture  
Dew Point 48 °F    
Average Humidity 80    
Maximum Humidity 89    
Minimum Humidity 71    
Precipitation  
Precipitation 0.04 in 0.09 in 1.03 in (2000)
Month to date precipitation 0.79  
Year to date precipitation 6.83  
Snow  
Snow 0.00 in 0.20 in 14.30 in (2000)
Month to date snowfall 2.0  
Since 1 July snowfall 78.6  
Snow Depth -    
Sea Level Pressure  
Sea Level Pressure 29.98 in    
Wind  
Wind Speed 13 mph (South)    
Max Wind Speed 20 mph    
Max Gust Speed 26 mph    
Visibility 9 miles    
Events Rain    
T = Trace of Precipitation, MM = Missing Value Source: NWS Daily Summary

Daily Weather History Graph

Daily Weather History Graph

Search for Another Location

Airport:

Trip Planner

Search our weather history database for the weather conditions in past years. The results will help you decide how hot, cold, wet, or windy it might be!

Date:

Astronomy

Apr. 09, 2002 Rise Set
Actual Time 6:19 AM EDT 7:29 PM EDT
Civil Twilight 5:49 AM EDT 7:59 PM EDT
Nautical Twilight 5:13 AM EDT 8:35 PM EDT
Astronomical Twilight 4:36 AM EDT 9:13 PM EDT
Moon 5:31 AM EDT (4/9) 4:24 PM EDT (4/9)
Length of Visible Light 14h 10m
Length of Day
13h 10m
Waning Crescent, 9% of the Moon is Illuminated
Apr 9
Waning Crescent
Apr 12
New
Apr 20
First Quarter
Apr 26
Full
May 4
Last Quarter

Hourly Weather History & Observations

Time (EDT) Temp. Windchill Dew Point Humidity Pressure Visibility Wind Dir Wind Speed Gust Speed Precip Events Conditions
12:54 AM 46.0 °F 41.4 °F 41.0 °F 83% 30.15 in 10.0 mi South 9.2 mph - 0.00 in Rain Light Rain
1:54 AM 48.0 °F - 43.0 °F 83% 30.11 in 10.0 mi South 12.7 mph - 0.00 in Rain Light Rain
2:54 AM 48.9 °F - 43.0 °F 80% 30.08 in 9.0 mi SSE 11.5 mph - 0.00 in   Overcast
3:54 AM 48.9 °F - 43.0 °F 80% 30.05 in 10.0 mi South 13.8 mph - 0.00 in Rain Light Rain
4:54 AM 48.9 °F - 43.0 °F 80% 30.03 in 8.0 mi South 12.7 mph - 0.00 in Rain Light Rain
5:54 AM 48.9 °F - 43.0 °F 80% 30.01 in 9.0 mi South 8.1 mph - 0.01 in   Overcast
6:54 AM 50.0 °F - 42.1 °F 74% 30.01 in 10.0 mi South 12.7 mph - N/A   Overcast
7:54 AM 50.0 °F - 46.0 °F 86% 29.99 in 5.0 mi South 17.3 mph 24.2 mph 0.00 in Rain Light Rain
8:54 AM 51.1 °F - 48.0 °F 89% 29.99 in 7.0 mi South 17.3 mph 24.2 mph 0.02 in Rain Light Rain
9:54 AM 51.1 °F - 45.0 °F 80% 29.97 in 7.0 mi South 15.0 mph - 0.01 in Rain Light Rain
10:54 AM 53.1 °F - 46.9 °F 80% 29.96 in 8.0 mi South 18.4 mph 25.3 mph 0.00 in   Overcast
11:54 AM 55.0 °F - 48.0 °F 77% 29.94 in 8.0 mi South 17.3 mph 23.0 mph 0.00 in Rain Light Rain
12:54 PM 57.0 °F - 50.0 °F 77% 29.91 in 9.0 mi South 18.4 mph 26.5 mph 0.00 in Rain Light Rain
1:54 PM 60.1 °F - 52.0 °F 75% 29.91 in 7.0 mi South 19.6 mph 24.2 mph 0.00 in Rain Light Rain
2:54 PM 61.0 °F - 52.0 °F 72% 29.89 in 10.0 mi South 18.4 mph 25.3 mph 0.00 in   Mostly Cloudy
3:54 PM 62.1 °F - 53.1 °F 72% 29.88 in 10.0 mi South 11.5 mph - N/A   Mostly Cloudy
4:54 PM 62.1 °F - 53.1 °F 72% 29.88 in 10.0 mi South 18.4 mph 24.2 mph 0.00 in Rain Light Rain
5:54 PM 61.0 °F - 54.0 °F 78% 29.89 in 10.0 mi South 15.0 mph - 0.00 in   Overcast
6:54 PM 60.1 °F - 55.0 °F 83% 29.90 in 9.0 mi South 16.1 mph - 0.00 in   Overcast
7:54 PM 60.1 °F - 55.0 °F 83% 29.92 in 10.0 mi South 11.5 mph - N/A   Overcast
8:54 PM 59.0 °F - 54.0 °F 83% 29.94 in 10.0 mi SSW 6.9 mph - N/A   Overcast
9:54 PM 53.1 °F - 44.1 °F 71% 30.04 in 10.0 mi NNW 16.1 mph - N/A   Overcast
10:54 PM 48.9 °F - 45.0 °F 86% 30.06 in 10.0 mi NNW 13.8 mph - 0.00 in   Overcast
11:54 PM 48.0 °F - 44.1 °F 86% 30.10 in 10.0 mi North 6.9 mph - N/A   Overcast